Flag for Germany Weather past 2 weeks in Cloppenburg, Lower Saxony, Germany

Now
52 °F

Cool.


Feels Like: 48 °F
Forecast: 41 / 46 °F
Wind: 12 mph from Southwest

Location: Meppen-Mil

Current Time: Mar 29, 2015 at 3:50:42 AM

Latest Report: Mar 29, 2015 at 1:20 AM


Visibility: 4 mi

Pressure: 29.62 "Hg

Humidity: 88%

Dew point: 48 °F

Location of CloppenburgLocation

Historic Weather in Cloppenburg — Graph

°F

Cloppenburg temperature yesterday

Maximum temperature yesterday: 52 °F (at 1:20 PM)
Minimum temperature yesterday: 30 °F (at 6:20 AM)
Average temperature yesterday: 43 °F

Past Weeks' High & Low Weather Summary

 TemperatureHumidityPressure
High63 °F (Mar 18, 3:20 PM)100% (Mar 18, 3:20 AM)30.42 "Hg (Mar 18, 3:20 AM)
Low25 °F (Mar 23, 6:20 AM)41% (Mar 24, 4:20 PM)29.62 "Hg (Mar 29, 12:20 AM)
Average42 °F78%30.10 "Hg
* Reported Mar 14 1:20 AM — Mar 29 1:20 AM, Cloppenburg, Weather by CustomWeather, © 2015

Note: Actual official high and low records may vary slightly from our data, if they occured in-between our weather recording intervals... More about our weather records

Advertising

Cloppenburg weather history for previous 24 hours

 ConditionsComfort  
Time TempWeatherWind HumidityBarometerVisibility
1:20 AM
Sun, Mar 29
52 °FCool.12 mph88%29.62 "Hg4 mi
12:20 AM50 °FCool.9 mph94%29.62 "Hg1 mi
11:20 PM
Sat, Mar 28
50 °FCool.10 mph94%29.65 "Hg1 mi
10:20 PM50 °FCool.12 mph94%29.68 "Hg1 mi
9:20 PM50 °FCool.12 mph94%29.71 "Hg2 mi
8:20 PM50 °FCool.10 mph88%29.74 "Hg2 mi
7:20 PM50 °FCool.12 mph88%29.74 "Hg3 mi
6:20 PM48 °FCool.14 mph87%29.77 "Hg3 mi
5:20 PM46 °FCool.12 mph93%29.80 "Hg4 mi
4:20 PM46 °FCool.10 mph93%29.83 "Hg1 mi
3:20 PM46 °FCool.13 mph87%29.86 "Hg2 mi
2:20 PM48 °FCool.12 mph76%29.89 "Hg3 mi
1:20 PM52 °FCool.12 mph54%29.95 "Hg4 mi
12:20 PM50 °FCool.10 mph54%29.98 "Hg5 mi
11:20 AM50 °FCool.12 mph54%30.01 "Hg5 mi
10:20 AM46 °FCool.10 mph66%30.04 "Hg5 mi
9:20 AM45 °FQuite cool.7 mph76%30.09 "Hg4 mi
8:20 AM37 °FChilly.3 mph93%30.09 "Hg2 mi
7:20 AM34 °FChilly.3 mph93%30.12 "Hg2 mi
6:20 AM30 °FChilly.1 mph93%30.15 "Hg0 mi
5:20 AM32 °FChilly.2 mph93%30.15 "Hg0 mi
4:20 AM34 °FChilly.2 mph93%30.15 "Hg0 mi
3:20 AM36 °FChilly.2 mph93%30.15 "Hg0 mi
Weather by CustomWeather, © 2015

See weather overviewHow to use our weather pages